Flag for Mexico Weather past 2 weeks in San Luis Potosi, San Luis Potosí, Mexico

Now
59 °F

Passing clouds.


Feels Like: 59 °F
Forecast: 56 / 80 °F
Wind: No wind

Location: San Luis Potosi - S. L. P.

Current Time: Sep 19, 2014 at 7:50:45 AM

Latest Report: Sep 19, 2014 at 6:47 AM


Visibility: 7 mi

Pressure: 29.74 "Hg

Humidity: 82%

Dew point: 54 °F

Location of San Luis PotosiLocation

Historic Weather in San Luis Potosi — Graph

°F

San Luis Potosi temperature yesterday

Maximum temperature yesterday: 81 °F (at 3:46 PM)
Minimum temperature yesterday: 57 °F (at 6:07 AM)
Average temperature yesterday: 67 °F

Past Weeks' High & Low Weather Summary

 TemperatureHumidityPressure
High81 °F (Sep 18, 3:46 PM)100% (Sep 4, 4:15 PM)30.36 "Hg (Sep 4, 4:15 PM)
Low55 °F (Sep 10, 6:45 AM)23% (Sep 6, 5:45 PM)29.65 "Hg (Sep 18, 3:46 PM)
Average65 °F73%30.08 "Hg
* Reported Sep 4 6:52 AM — Sep 19 6:47 AM, San Luis Potosi, Weather by CustomWeather, © 2014

Note: Actual official high and low records may vary slightly from our data, if they occured in-between our weather recording intervals... More about our weather records

Advertising

San Luis Potosi weather history for previous 24 hours

 ConditionsComfort  
Time TempWeatherWind HumidityBarometerVisibility
6:47 AM
Sep 19
59 °FPassing clouds.No wind82%29.74 "Hg7 mi
4:45 AM63 °FPassing clouds.5 mph77%30.15 "Hg7 mi
2:46 AM64 °FPassing clouds.No wind78%30.15 "Hg7 mi
12:49 AM63 °FPassing clouds.No wind83%29.77 "Hg7 mi
11:53 PM
Sep 18
64 °FPassing clouds.6 mph78%30.18 "Hg8 mi
10:49 PM64 °FClear.6 mph83%30.16 "Hg8 mi
9:51 PM66 °FPassing clouds.No wind78%29.76 "Hg8 mi
8:46 PM68 °FPartly cloudy.3 mph78%30.11 "Hg10 mi
7:48 PM73 °FThundershowers. Mostly cloudy.6 mph57%30.09 "Hg7 mi
6:53 PM73 °FThundershowers. Partly sunny.9 mph57%29.69 "Hg10 mi
4:46 PM81 °FPartly sunny.5 mph39%30.06 "Hg12 mi
3:46 PM81 °FPartly sunny.6 mph39%29.65 "Hg12 mi
2:46 PM79 °FPartly sunny.No wind39%30.13 "Hg12 mi
1:48 PM79 °FScattered clouds.6 mph42%30.17 "Hg5 mi
12:45 PM72 °FScattered clouds.No wind57%29.78 "Hg3 mi
12:21 PM70 °FFog.No wind60%30.21 "Hg1 mi
11:47 AM68 °FFog.No wind64%30.22 "Hg1 mi
9:45 AM61 °FFog.3 mph100%29.85 "Hg3 mi
8:47 AM61 °FFog.3 mph94%30.20 "Hg3 mi
7:58 AM59 °FFog.No wind100%30.19 "Hg1 mi
Weather by CustomWeather, © 2014

See weather overviewHow to use our weather pages